Location: Altleiningen
(49.5078°N, 8.0741°E)
Time: 10:54:52
(UTC+00:00)

Cosmos 2242 Rocket - Pass Details

Date: 03 March 2021
Orbit: 617 x 652 km, 82.5° (Epoch: 13 April)

Event Time Altitude Azimuth Distance (km) Brightness Sun altitude
Rises 19:04:48 0° 346° (NNW) 2,963 7.4 -18.7°
Reaches altitude 10° 19:07:06 10° 343° (NNW) 2,043 6.6 -19.1°
Maximum altitude 19:11:32 56° 265° (W) 758 4.3 -19.8°
Drops below altitude 10° 19:15:53 10° 188° (S) 2,005 6.1 -20.5°
Sets 19:18:07 0° 184° (S) 2,902 6.9 -20.8°
